Weather History for Saranac Lake, NY

Change the Weather History Date:

Tuesday, December 13, 2011

  Actual Average Record
Temperature  
Mean Temperature 22 °F 20 °F  
Max Temperature 34 °F 29 °F 52 °F (1949)
Min Temperature 10 °F 10 °F -22 °F (1982)
Degree Days  
Heating Degree Days 43 45  
Month to date heating degree days 477 554  
Since 1 July heating degree days 2274 2829  
Moisture  
Dew Point 25 °F    
Average Humidity 88    
Maximum Humidity 100    
Minimum Humidity 75    
Precipitation  
Precipitation T in 0.07 in 1.93 in (1983)
Month to date precipitation 0.63 1.12  
Year to date precipitation 41.97 36.35  
Sea Level Pressure  
Sea Level Pressure 30.35 in    
Wind  
Wind Speed 2 mph (SW)    
Max Wind Speed 9 mph    
Max Gust Speed 12 mph    
Visibility 6 miles    
Events Snow    
T = Trace of Precipitation, MM = Missing Value Source: NWS Daily Summary

Daily Weather History Graph

Daily Weather History Graph

Search for Another Location

Airport:

Trip Planner

Search our weather history database for the weather conditions in past years. The results will help you decide how hot, cold, wet, or windy it might be!

Date:

Astronomy

Dec. 13, 2011 Rise Set
Actual Time 7:24 AM EST 4:17 PM EST
Civil Twilight 6:50 AM EST 4:50 PM EST
Nautical Twilight 6:14 AM EST 5:27 PM EST
Astronomical Twilight 5:38 AM EST 6:02 PM EST
Moon 7:34 PM EST (12/13) 9:29 AM EST (12/13)
Length of Visible Light 9h 59m
Length of Day
8h 53m
Waning Gibbous, 90% of the Moon is Illuminated
Dec 13
Waning Gibbous
Dec 17
Last Quarter
Dec 24
New
Jan 1
First Quarter
Jan 9
Full

Hourly Weather History & Observations

Time (EST) Temp. Windchill Dew Point Humidity Pressure Visibility Wind Dir Wind Speed Gust Speed Precip Events Conditions
12:51 AM 10.9 °F - 7.0 °F 84% 30.41 in 10.0 mi Calm Calm - N/A   Clear
1:51 AM 12.0 °F - 8.1 °F 84% 30.40 in 10.0 mi Calm Calm - N/A   Clear
2:51 AM 10.9 °F - 8.1 °F 88% 30.41 in 10.0 mi Calm Calm - N/A   Clear
3:51 AM 10.9 °F - 8.1 °F 88% 30.40 in 10.0 mi Calm Calm - N/A   Clear
4:51 AM 12.0 °F - 9.0 °F 88% 30.41 in 10.0 mi Calm Calm - N/A   Clear
5:51 AM 10.9 °F - 8.1 °F 88% 30.41 in 10.0 mi Calm Calm - N/A   Mostly Cloudy
6:51 AM 16.0 °F - 12.9 °F 88% 30.41 in 10.0 mi Calm Calm - N/A   Overcast
7:20 AM 17.6 °F - 14.0 °F 86% 30.33 in 10.0 mi Calm Calm - N/A   Overcast
7:36 AM 19.4 °F - 15.8 °F 86% 30.33 in 10.0 mi Calm Calm - N/A   Overcast
7:51 AM 19.9 °F - 17.1 °F 89% 30.42 in 10.0 mi Calm Calm - N/A   Overcast
8:51 AM 24.1 °F - 21.0 °F 88% 30.43 in 10.0 mi Calm Calm - N/A   Overcast
9:51 AM 26.1 °F 19.4 °F 21.0 °F 81% 30.43 in 10.0 mi SW 5.8 mph - N/A   Overcast
10:51 AM 28.0 °F - 23.0 °F 81% 30.42 in 10.0 mi Calm Calm - N/A   Overcast
11:51 AM 30.0 °F 26.5 °F 25.0 °F 82% 30.40 in 10.0 mi SSW 3.5 mph - N/A   Overcast
12:32 PM 32.0 °F 27.5 °F 26.6 °F 80% 30.30 in 9.0 mi SW 4.6 mph - N/A   Overcast
12:51 PM 32.0 °F 25.6 °F 26.1 °F 79% 30.37 in 9.0 mi SW 6.9 mph - N/A   Overcast
1:38 PM 33.8 °F 27.7 °F 26.6 °F 75% 30.28 in 9.0 mi SW 6.9 mph - N/A   Overcast
1:51 PM 33.1 °F 26.1 °F 27.0 °F 78% 30.35 in 9.0 mi SW 8.1 mph - N/A   Overcast
2:11 PM 33.8 °F 27.7 °F 26.6 °F 75% 30.27 in 9.0 mi WSW 6.9 mph - N/A   Overcast
2:51 PM 33.1 °F 27.7 °F 27.0 °F 78% 30.36 in 9.0 mi SW 5.8 mph - N/A   Overcast
3:39 PM 33.8 °F 30.8 °F 28.4 °F 81% 30.28 in 8.0 mi SW 3.5 mph - N/A   Overcast
3:51 PM 34.0 °F 31.0 °F 28.0 °F 79% 30.36 in 8.0 mi WSW 3.5 mph - N/A   Overcast
4:51 PM 33.1 °F - 30.0 °F 89% 30.38 in 6.0 mi Calm Calm - N/A   Overcast
5:51 PM 33.1 °F 28.7 °F 30.9 °F 92% 30.38 in 3.0 mi SW 4.6 mph - N/A   Overcast
6:01 PM 33.8 °F 29.6 °F 30.2 °F 87% 30.30 in 2.5 mi SW 4.6 mph - N/A   Overcast
6:51 PM 33.1 °F 30.0 °F 32.0 °F 96% 30.38 in 1.8 mi SW 3.5 mph - 0.00 in Snow Light Snow
7:30 PM 32.0 °F - 32.0 °F 100% 30.30 in 1.2 mi Calm Calm - 0.00 in Snow Light Snow
7:51 PM 32.0 °F 28.7 °F 32.0 °F 100% 30.37 in 1.0 mi SSW 3.5 mph - 0.00 in   Overcast
8:10 PM 32.0 °F 27.5 °F 32.0 °F 100% 30.30 in 2.5 mi SSW 4.6 mph - N/A   Overcast
8:23 PM 32.0 °F 27.5 °F 32.0 °F 100% 30.30 in 1.8 mi SSW 4.6 mph - N/A   Overcast
8:38 PM 32.0 °F 28.7 °F 30.2 °F 93% 30.30 in 2.5 mi SW 3.5 mph - N/A   Overcast
8:51 PM 33.1 °F - 32.0 °F 96% 30.37 in 2.5 mi Calm Calm - N/A   Overcast
9:12 PM 33.8 °F 30.8 °F 32.0 °F 93% 30.29 in 2.5 mi WSW 3.5 mph - N/A   Overcast
9:31 PM 33.8 °F 30.8 °F 32.0 °F 93% 30.30 in 2.0 mi WSW 3.5 mph - N/A   Overcast
9:51 PM 33.1 °F - 32.0 °F 96% 30.36 in 1.2 mi Calm Calm - N/A   Overcast
10:04 PM 33.8 °F - 32.0 °F 93% 30.30 in 0.8 mi Calm Calm - N/A   Overcast
10:51 PM 32.0 °F 27.5 °F 32.0 °F 100% 30.35 in 0.8 mi SW 4.6 mph - 0.00 in   Overcast
11:01 PM 32.0 °F 28.7 °F 32.0 °F 100% 30.29 in 1.8 mi WSW 3.5 mph - N/A   Overcast
11:10 PM 32.0 °F 27.5 °F 32.0 °F 100% 30.29 in 2.0 mi SW 4.6 mph - N/A   Overcast
11:49 PM 32.0 °F - 32.0 °F 100% 30.29 in 1.5 mi Calm Calm - N/A   Overcast
11:51 PM 32.0 °F 28.7 °F 32.0 °F 100% 30.35 in 1.2 mi SW 3.5 mph - N/A   Overcast